This is the latest recevied weather packets stored in our database for station/object OE3KJN-13. If no packets are shown the sender has not sent any weather packets the latest 1 day(s).
| Time | Temp. | Humidity | Pressure | Rain* | Wind** | Luminosity | Snow |
|---|---|---|---|---|---|---|---|
| 1777996137 | 25° C | 100% | 0 hPa | 0 mm | 4.92 m/s, 247° | - | - |
| 1777995837 | 25° C | 100% | 0 hPa | 0 mm | 5.81 m/s, 274° | - | - |
| 1777995537 | 25° C | 100% | 0 hPa | 0 mm | 3.58 m/s, 268° | - | - |
| 1777995236 | 25° C | 100% | 0 hPa | 0 mm | 4.92 m/s, 217° | - | - |
| 1777994936 | 25° C | 100% | 0 hPa | 0 mm | 4.92 m/s, 281° | - | - |
| 1777994636 | 25° C | 100% | 0 hPa | 0 mm | 3.58 m/s, 306° | - | - |
| 1777994335 | 25° C | 100% | 0 hPa | 0 mm | 6.71 m/s, 217° | - | - |
| 1777994035 | 25° C | 100% | 0 hPa | 0 mm | 4.92 m/s, 306° | - | - |
| 1777993735 | 25.56° C | 100% | 0 hPa | 0 mm | 3.58 m/s, 284° | - | - |
| 1777993435 | 25.56° C | 100% | 0 hPa | 0 mm | 4.47 m/s, 277° | - | - |
| 1777993134 | 25.56° C | 100% | 0 hPa | 0 mm | 5.36 m/s, 288° | - | - |
| 1777992834 | 25.56° C | 100% | 0 hPa | 0 mm | 4.47 m/s, 310° | - | - |
| 1777992534 | 25.56° C | 100% | 0 hPa | 0 mm | 4.47 m/s, 275° | - | - |
| 1777992233 | 26.11° C | 100% | 0 hPa | 0 mm | 6.26 m/s, 291° | - | - |
| 1777991933 | 25.56° C | 100% | 0 hPa | 0 mm | 4.92 m/s, 295° | - | - |
| 1777991633 | 26.11° C | 100% | 0 hPa | 0 mm | 3.58 m/s, 288° | - | - |
| 1777991332 | 26.67° C | 100% | 0 hPa | 0 mm | 4.02 m/s, 296° | - | - |
| 1777991032 | 27.22° C | 100% | 0 hPa | 0 mm | 6.71 m/s, 300° | - | - |
| 1777990732 | 28.33° C | 100% | 0 hPa | 0 mm | 6.71 m/s, 261° | - | - |
| 1777990432 | 28.33° C | 100% | 0 hPa | 0 mm | 4.92 m/s, 225° | - | - |
| 1777990131 | 29.44° C | 100% | 0 hPa | 0 mm | 8.05 m/s, 272° | - | - |
| 1777989831 | 28.33° C | 100% | 0 hPa | 0 mm | 4.47 m/s, 198° | - | - |
| 1777989531 | 28.89° C | 100% | 0 hPa | 0 mm | 7.15 m/s, 229° | - | - |
| 1777989230 | 29.44° C | 100% | 0 hPa | 0 mm | 7.15 m/s, 203° | - | - |
| 1777988930 | 30° C | 100% | 0 hPa | 0 mm | 3.58 m/s, 323° | - | - |
* Rain latest hour (hover to see other rain measurements)
** Current wind speed in m/s (hover to see current wind gust speed)